{"data":{"norad_id":82783,"intl_designator":"","name":"UNKNOWN","alt_names":[],"object_type":"UNKNOWN","status":"UNKNOWN","operator":null,"country":null,"launch_date":null,"launch_site_code":null,"launch_vehicle":null,"mission":null,"orbit_class":"UNKNOWN","rcs_meters":null,"size_class":null,"mass_kg":null,"dimensions":null,"purposes":[],"wikipedia_slug":null,"has_3d_model":false,"image_url":null,"decayed_at":null,"tle_current":{"epoch":"2026-07-05T13:02:24.725472Z","epoch_age_seconds":6674898,"freshness":"OLD","line1":"1 82783U          26186.54334173  .00000320  00000+0  90858-3 0  9998","line2":"2 82783  90.3472  44.7859 0020441 287.0382  72.8506 13.09299093531151","mean_motion":13.09299093,"eccentricity":0.0020441,"inclination_deg":90.3472,"raan_deg":44.7859,"arg_perigee_deg":287.0382,"mean_anomaly_deg":72.8506,"bstar":0.00090858,"rev_number":53115,"period_min":109.98250955025,"perigee_km":1210.3281982474,"apogee_km":1241.4149060102,"semimajor_km":7604.0085521288,"source":"CELESTRAK","updated_at":"2026-08-04T09:00:58.920961Z"}}}